Vertical_Velocity
1 -1 -3 -5 -1 1 3 5 6 4 2 -0 -0 -0 -0 -0 0 1 2 2 2 2 1 1 -0 -1 -1 -2 -2 -2 -2 -2 -1 -1 -1 -1 -2 -2 -2 -3 -2 -2 -2 -3 -3 -3 -3 -3 -3 -2 -1 -1 -1 -1 -0 -0 -0 -0 -0 0 -0 -0 -0 -0 -0 -0 -0 -0 -1
-1 -2 -3 -4 -1 0 1 2 1 0 0 2 2 1 1 1 1 1 1 2 2 1 1 -0 -0 -1 -2 -2 -2 -2 -2 -2 -1 -1 -1 -1 -2 -2 -2 -2 -2 -2 -3 -3 -3 -3 -3 -3 -3 -2 -1 -1 -1 -1 -1 -0 -0 -0 -0 -0 -0 -0 -0 -0 -0 -0 -0 -0 -0
0 -1 -2 -3 -2 -1 -0 -1 -2 -1 -0 1 2 2 2 2 2 1 1 1 2 1 1 -0 -1 -1 -1 -2 -2 -2 -2 -2 -2 -1 -1 -2 -2 -2 -2 -2 -2 -2 -3 -3 -3 -3 -3 -3 -2 -2 -1 -1 -0 -0 -0 -0 0 0 -0 -0 -0 -1 -1 -1 -1 -0 -0 -0 -0
1 -1 -2 -3 -2 -1 -0 -1 -1 -1 -1 -0 1 2 2 2 1 1 1 1 1 1 0 -0 -1 -1 -1 -2 -2 -2 -2 -2 -2 -2 -2 -2 -2 -2 -2 -2 -2 -3 -3 -4 -4 -3 -3 -2 -2 -1 -0 0 0 0 0 -0 -0 -0 -0 -0 -0 -0 -1 -1 -1 -0 -0 -0 -0
1 -0 -1 -1 1 2 3 1 0 -0 -0 0 1 1 1 1 1 2 2 1 1 0 -0 -0 -1 -1 -1 -2 -2 -2 -2 -2 -2 -2 -2 -2 -2 -2 -2 -2 -2 -3 -3 -4 -4 -3 -3 -2 -1 -0 0 1 1 1 0 -0 -0 -1 -1 -1 -1 -1 -1 -1 -1 -1 -0 -0 -0
1 1 2 2 4 4 4 2 1 1 1 2 1 1 1 1 2 1 1 0 0 -0 -0 -0 -1 -1 -1 -2 -2 -2 -2 -2 -2 -2 -2 -3 -2 -2 -2 -2 -3 -3 -3 -4 -3 -3 -2 -2 -1 -0 0 0 0 0 0 -0 -0 -1 -1 -2 -2 -1 -1 -1 -1 -1 -0 -0 -0
2 2 2 2 2 1 1 1 2 2 2 3 2 2 1 1 1 1 1 0 0 -0 -0 -1 -1 -1 -2 -2 -2 -2 -2 -2 -2 -2 -2 -2 -2 -2 -2 -2 -3 -3 -4 -4 -3 -2 -2 -1 -1 -0 0 0 -0 -0 -0 -0 -0 -0 -0 -1 -1 -1 -1 -1 -1 -1 -1 -0 0
3 2 1 0 -0 -0 0 1 2 2 3 3 3 3 3 2 2 1 1 1 0 -0 -1 -1 -1 -2 -2 -2 -2 -2 -2 -2 -2 -2 -2 -2 -2 -2 -2 -2 -3 -3 -3 -3 -2 -2 -1 -1 -0 -0 -0 -0 -0 -1 -1 -1 -0 -0 -0 -0 -1 -1 -1 -1 -1 -1 -1 -1 -0
2 2 1 1 0 1 2 2 2 2 1 2 2 3 4 3 2 1 1 -0 -0 -0 -1 -1 -1 -2 -2 -2 -2 -2 -2 -2 -2 -2 -2 -2 -2 -2 -2 -3 -3 -3 -2 -2 -2 -1 -1 -1 -0 -0 -0 -0 -0 -1 -1 -1 -1 -0 -0 -0 -0 -0 -1 -1 -1 -1 -2 -2 -1
-0 -0 -0 1 1 2 3 4 4 3 2 2 3 4 4 3 2 1 0 -0 -1 -1 -1 -1 -2 -2 -2 -2 -2 -2 -2 -2 -2 -2 -2 -1 -1 -2 -2 -3 -3 -2 -2 -1 -1 -1 -1 -1 -1 -0 -0 -0 -0 -1 -1 -1 -1 -1 -1 -1 -0 0 0 -0 -1 -1 -1 -1 -1
-0 -1 -0 -0 1 2 3 3 3 4 4 4 4 3 3 2 2 1 0 -0 -1 -1 -1 -1 -2 -2 -2 -2 -2 -2 -2 -2 -2 -2 -1 -1 -1 -2 -2 -2 -2 -2 -1 -1 -1 -1 -1 -1 -1 -1 -0 -0 -1 -1 -1 -1 -1 -1 -1 -1 -1 -0 -0 0 -0 -0 -0 -1 -1
2 2 1 1 1 2 2 1 1 2 4 4 3 2 2 2 1 0 -0 -1 -1 -1 -1 -1 -1 -2 -2 -2 -2 -2 -2 -2 -2 -2 -1 -1 -1 -2 -2 -1 -1 -1 -1 -1 -1 -1 -1 -1 -1 -1 -1 -0 -1 -1 -1 -1 -1 -1 -1 -1 -1 -1 -0 0 0 0 0 -0 -0
2 2 2 2 2 2 2 1 2 2 3 3 2 2 1 1 0 -0 -1 -1 -1 -1 -1 -1 -1 -2 -2 -2 -2 -2 -2 -2 -2 -1 -1 -1 -1 -1 -1 -1 -1 -1 -1 -1 -1 -1 -1 -1 -1 -0 -0 -0 -0 -1 -1 -1 -1 -1 -1 -1 -0 -0 0 0 1 0 0 -0 -0
3 2 1 2 2 2 2 2 2 2 2 2 2 1 0 -0 -0 -1 -1 -1 -1 -1 -1 -1 -1 -2 -2 -2 -2 -2 -2 -2 -1 -1 -1 -1 -1 -1 -1 -0 -0 -1 -1 -1 -1 -1 -1 -1 -0 -0 -0 -0 -0 -1 -1 -1 -2 -1 -1 -1 -0 0 0 1 0 0 -0 -0 -0
2 3 3 3 2 2 2 2 2 2 2 1 1 1 0 -1 -1 -1 -1 -1 -0 -0 -0 -1 -1 -2 -2 -2 -2 -2 -2 -1 -1 -1 -1 -1 -1 -1 -0 -0 -0 -1 -1 -1 -1 -1 -1 -1 -0 -0 -0 -0 -0 -1 -1 -2 -2 -2 -1 -1 -0 0 0 0 0 0 -0 -0 -0
2 3 4 4 2 2 1 1 1 1 1 1 1 0 -0 -1 -1 -1 -1 -1 -0 -0 -0 -1 -1 -2 -2 -2 -2 -2 -1 -1 -1 -1 -1 -1 -0 -0 -0 -0 -0 -1 -1 -1 -1 -1 -1 -1 -0 -0 -0 -0 -0 -1 -1 -1 -1 -1 -1 -1 -0 -0 -0 -0 0 0 -0 -0 -0
2 3 4 3 2 1 1 1 0 0 0 0 0 -0 -0 -1 -1 -1 -1 -0 -0 -0 -0 -1 -1 -1 -2 -2 -1 -1 -1 -1 -1 -1 -0 -0 -0 -0 -0 -0 -1 -1 -1 -1 -1 -1 -1 -1 -1 -1 -1 -1 -1 -1 -1 -1 -1 -1 -0 -0 -0 -0 -0 -0 -0 -0 -0 -0 -1
2 3 3 3 2 1 1 1 0 0 0 0 -0 -0 -0 -0 -1 -0 -0 -0 0 -0 -0 -1 -1 -1 -1 -1 -1 -1 -1 -1 -0 -0 -0 -0 -0 -0 -0 -1 -1 -1 -1 -1 -1 -1 -1 -1 -1 -1 -2 -2 -2 -2 -1 -1 -1 -0 -0 -0 -0 -0 -0 -0 -0 -0 -0 -0 -0
2 2 2 2 1 1 1 2 1 1 1 1 0 0 -0 -0 0 0 0 0 0 0 -0 -1 -1 -1 -1 -1 -1 -1 -0 -0 -0 0 0 0 -0 -0 -0 -1 -1 -1 -1 -1 -1 -1 -1 -1 -1 -2 -2 -2 -2 -1 -1 -1 -1 -1 -1 -0 -1 -1 -1 -0 0 0 0 -0 -0
1 1 1 1 1 1 2 2 2 2 1 1 1 1 0 0 1 1 1 1 0 -0 -0 -0 -1 -1 -1 -1 -0 -0 -0 -0 -0 0 0 0 -0 -0 -0 -1 -1 -1 -1 -1 -1 -1 -1 -1 -1 -1 -1 -1 -1 -1 -1 -1 -1 -1 -1 -1 -1 -1 -1 -1 -0 0 0 -0 -0
2 1 1 1 2 2 2 2 2 2 2 1 1 1 1 1 1 1 1 1 0 -0 -0 -0 -0 -0 -0 -0 -0 -0 -0 -0 -0 -0 0 0 -0 -0 -0 -1 -1 -1 -1 -1 -1 -1 -1 -1 -1 -1 -1 -1 -1 -1 -1 -1 -1 -1 -1 -1 -1 -1 -1 -1 -1 -0 -0 -0 -0
2 2 2 3 3 2 2 2 2 2 2 1 1 2 2 2 2 1 1 1 1 0 -0 -0 -0 -0 -0 -0 -0 -0 0 0 -0 -0 -0 -0 -0 -0 -0 -1 -1 -1 -1 -1 -1 -1 -1 -1 -1 -2 -2 -2 -2 -2 -2 -1 -1 -1 -0 -0 -1 -1 -1 -1 -1 -1 -1 -1 -1
1 2 3 3 3 3 2 2 2 1 1 1 2 2 2 2 2 2 1 1 0 0 -0 -0 -0 -0 -0 -0 -0 0 0 0 0 0 -0 -0 -0 -0 -0 -1 -1 -1 -1 -1 -1 -1 -1 -1 -1 -2 -3 -3 -4 -3 -3 -2 -2 -1 -1 -0 -0 -0 -0 -0 -0 -0 -1 -1 -1
1 2 2 2 2 2 2 2 2 1 2 2 2 2 2 2 2 2 1 1 0 -0 -0 -0 -0 -0 -0 -0 -0 0 0 0 0 0 0 -0 -0 -0 -0 -1 -1 -1 -1 -0 -0 -0 -0 -0 0 -0 -0 -1 -2 -2 -2 -3 -2 -2 -1 -1 -0 -0 0 -0 -0 -0 -0 -0 -1
2 2 2 2 2 2 2 2 2 2 2 3 3 3 3 2 2 1 1 0 -0 -0 -0 -0 -0 -0 -0 -0 -0 -0 -0 -0 -0 -0 -0 -0 -0 -0 -1 -1 -1 -1 -0 -0 -0 -0 -0 -0 -0 0 0 0 -0 -0 -1 -2 -2 -2 -2 -1 -1 -1 -1 -1 -1 -1 -1 -1 -1
2 2 2 2 2 2 2 2 2 3 3 4 3 3 2 2 1 1 0 -0 -0 -0 -0 -0 -0 -0 -0 -0 0 0 -0 -0 -1 -1 -1 -1 -1 -1 -1 -1 -1 -1 -0 -0 -0 -0 -0 -1 -1 -1 -0 -0 -0 -0 -1 -1 -1 -2 -2 -2 -2 -2 -3 -2 -2 -1 -1 -1 -1
3 2 2 2 2 2 2 2 4 4 4 4 3 2 2 1 0 0 0 -0 -0 -0 -0 -0 -0 -0 -0 -0 -0 -0 -0 -0 -0 -1 -1 -1 -1 -1 -1 -1 -1 -0 -0 -0 -0 -0 -0 -1 -1 -1 -1 -1 -1 -1 -1 -1 -1 -1 -2 -2 -2 -3 -3 -3 -3 -2 -1 -1 -1
2 2 2 2 2 2 3 4 4 4 4 3 2 1 1 0 0 0 0 0 -0 -0 -0 -0 -0 -0 -0 -0 -0 -0 -0 -1 -1 -0 -0 -1 -1 -1 -1 -1 -0 -0 -0 -0 -0 -0 -0 -0 -1 -1 -1 -1 -1 -1 -1 -2 -2 -1 -1 -1 -1 -1 -1 -1 -2 -2 -2 -1 -1
2 2 1 1 2 2 4 4 4 3 3 2 2 1 1 0 0 0 0 -0 -0 -0 -0 -0 -0 -0 -0 -0 -0 -0 -1 -1 -0 -0 -1 -1 -1 -1 -1 -0 -0 -0 -0 -0 -0 -0 -1 -1 -1 -1 -1 -1 -1 -1 -1 -1 -1 -1 -1 -1 -1 -1 -0 -0 -0 -1 -1 -1 -1
2 2 2 2 2 3 3 3 3 2 2 2 1 1 1 0 0 0 -0 -0 -0 -0 -0 -0 -0 -0 -0 -0 -1 -1 -1 -0 -0 -0 -1 -1 -1 -1 -1 -0 -0 -0 -0 -1 -1 -1 -1 -1 -1 -1 -1 -1 -1 -1 -1 -1 -1 -1 -1 -1 -1 -0 -0 -0 -0 -0 -0 -0 -0
2 2 2 2 3 3 3 3 3 2 2 1 1 1 1 0 0 -0 -0 -0 -0 -0 -0 -0 -0 -0 -0 -1 -1 -1 -0 -0 -0 -1 -1 -1 -1 -1 -0 -0 -0 -0 -0 -1 -1 -1 -1 -1 -1 -1 -1 -1 -1 -1 -0 -0 -0 -1 -1 -1 -1 -1 -1 -1 -1 -1 -0 -0 -0
2 2 2 3 3 3 3 2 2 2 1 1 1 1 0 0 0 -0 -0 -0 -0 -0 -0 -0 -0 -0 -1 -1 -1 -0 -0 -0 -0 -1 -1 -1 -1 -0 -0 -0 -1 -1 -1 -1 -1 -1 -1 -1 -1 -1 -1 -1 -1 -1 -0 -1 -1 -1 -1 -1 -1 -1 -1 -1 -1 -1 -1 -0 -0
2 2 3 3 3 3 2 2 1 1 1 1 1 1 0 -0 -0 -0 -0 -0 -0 -0 -0 -0 -1 -1 -1 -1 -0 -0 -0 -0 -1 -1 -1 -0 -0 -0 -0 -1 -1 -1 -1 -1 -1 -1 -1 -1 -1 -1 -1 -1 -1 -1 -1 -1 -1 -1 -1 -1 -1 -1 -1 -1 -1 -1 -1 -0 0
2 2 3 3 3 2 2 1 1 1 1 1 1 0 0 -0 -0 -0 -1 -1 -1 -0 -0 -0 -1 -1 -1 -0 -0 -0 -0 -1 -1 -1 -1 -0 -1 -1 -1 -1 -1 -2 -1 -1 -1 -1 -1 -1 -1 -1 -1 -1 -1 -1 -1 -1 -1 -1 -1 -1 -1 -0 -1 -1 -1 -1 -0 1 1
2 2 2 2 2 2 1 1 1 1 1 1 0 0 -0 -0 -1 -1 -1 -1 -0 -0 -1 -1 -1 -1 -1 -0 -0 -1 -1 -1 -1 -1 -0 -1 -1 -1 -1 -1 -2 -2 -2 -2 -1 -1 -1 -1 -1 -1 -1 -1 -1 -1 -1 -1 -1 -1 -1 -1 -0 0 0 0 0 1 1 1 -0
3 2 2 2 2 2 1 1 1 1 1 0 -0 -0 -1 -1 -1 -1 -1 -0 -0 -1 -1 -1 -1 -0 -0 -0 -0 -1 -1 -1 -1 -1 -1 -1 -1 -1 -1 -2 -2 -2 -2 -2 -1 -1 -1 -1 -1 -1 -1 -1 -1 -1 -1 -1 -1 -1 -1 -1 -1 -0 0 1 1 2 1 -0 -2
3 2 2 1 1 1 1 1 1 1 0 -0 -0 -1 -1 -1 -1 -0 -0 -0 -1 -2 -1 -0 -0 -0 -0 -1 -1 -1 -1 -1 -1 -1 -1 -1 -1 -1 -1 -2 -2 -2 -2 -1 -1 -1 -0 -0 -1 -1 -1 -1 -1 -1 -1 -1 -1 -1 -1 -1 -1 -0 0 2 2 1 -1 -3 -3
3 3 3 2 2 1 1 1 1 0 -0 -0 -1 -1 -1 -0 0 0 -0 -1 -2 -1 -0 0 -0 -0 -0 -1 -1 -1 -1 -1 -1 -1 -1 -1 -2 -1 -1 -1 -2 -2 -2 -1 -1 -0 -0 -0 -1 -1 -1 -2 -1 -1 -1 -1 -1 -1 -1 -1 -1 -0 1 3 1 -1 -4 -5 -4
2 3 3 2 2 1 1 0 0 -0 -0 -1 -1 -0 0 0 0 -0 -1 -1 -1 -1 -0 0 -0 -0 -1 -1 -1 -1 -1 -1 -1 -1 -2 -2 -2 -2 -2 -1 -1 -1 -1 -1 -1 -0 -1 -1 -1 -1 -1 -1 -1 -1 -1 -1 -1 -1 -1 -1 -1 1 3 2 -2 -4 -4 -3 -2
2 2 3 2 2 1 0 -0 -0 -0 -0 -0 -0 0 0 -0 -1 -1 -1 -1 -0 -0 -0 -0 -0 -1 -1 -1 -1 -1 -1 -1 -2 -2 -2 -2 -2 -2 -2 -2 -1 -1 -1 -1 -1 -1 -1 -1 -1 -1 -1 -1 -1 -1 -1 -1 -1 -1 -0 0 1 2 2 -0 -4 -6 -5 -1 1
2 2 2 1 1 1 0 -0 -0 -0 -0 0 0 -0 -1 -2 -2 -1 -1 -0 -0 -0 -0 -0 -0 -0 -1 -1 -1 -1 -2 -2 -2 -2 -2 -2 -3 -3 -2 -2 -1 -1 -1 -1 -1 -1 -1 -1 -1 -1 -1 -1 -1 -1 -1 -1 -1 -0 1 2 2 0 -1 -3 -4 -4 -3 -1 1
Height
1463 1465 1467 1469 1470 1471 1473 1475 1476 1478 1479 1481 1482 1483 1485 1487 1489 1490 1491 1492 1493 1494 1495 1496 1496 1497 1498 1499 1500 1501 1501 1501 1501 1501 1501 1501 1501 1501 1501 1501 1501 1501 1501 1501 1500 1500 1500 1499 1499 1499 1498 1498 1497 1496 1496 1495 1494 1493 1492 1492 1491 1491 1490 1489 1488 1487 1487 1486 1485
1462 1464 1466 1468 1469 1471 1472 1474 1476 1477 1479 1480 1481 1483 1485 1486 1488 1489 1490 1491 1492 1493 1494 1495 1496 1497 1498 1499 1500 1500 1500 1501 1500 1500 1500 1501 1501 1501 1501 1501 1501 1500 1500 1500 1500 1499 1499 1499 1498 1498 1497 1496 1496 1495 1495 1494 1493 1492 1492 1491 1490 1490 1489 1488 1487 1486 1486 1485 1484
1461 1463 1465 1466 1468 1470 1471 1473 1475 1477 1478 1480 1481 1483 1484 1486 1487 1488 1489 1491 1492 1493 1494 1495 1495 1496 1497 1498 1499 1499 1500 1500 1500 1500 1500 1500 1500 1500 1500 1500 1500 1499 1499 1499 1499 1499 1498 1498 1497 1497 1496 1496 1495 1494 1494 1493 1492 1492 1491 1490 1489 1489 1488 1487 1486 1486 1485 1484 1483
1460 1462 1463 1465 1467 1469 1471 1472 1474 1476 1477 1479 1481 1482 1484 1485 1486 1487 1489 1490 1491 1492 1493 1494 1495 1496 1497 1498 1498 1499 1499 1499 1499 1499 1499 1499 1499 1499 1499 1499 1499 1499 1498 1498 1498 1498 1497 1497 1496 1496 1496 1495 1494 1494 1493 1492 1491 1491 1490 1489 1489 1488 1487 1486 1485 1484 1484 1483 1481
1459 1461 1462 1464 1466 1468 1470 1471 1473 1475 1476 1478 1480 1481 1483 1484 1485 1487 1488 1489 1491 1492 1493 1494 1495 1496 1496 1497 1498 1498 1498 1498 1498 1498 1498 1498 1498 1498 1498 1498 1498 1498 1498 1497 1497 1497 1496 1496 1496 1495 1495 1494 1493 1493 1492 1491 1491 1490 1489 1488 1487 1487 1486 1485 1484 1483 1482 1481 1480
1458 1460 1462 1464 1465 1467 1469 1471 1472 1474 1476 1478 1479 1481 1482 1483 1485 1486 1487 1489 1490 1491 1492 1493 1494 1495 1496 1496 1497 1497 1497 1497 1497 1497 1497 1497 1497 1497 1497 1497 1497 1497 1497 1496 1496 1496 1496 1495 1495 1494 1494 1493 1492 1492 1491 1491 1490 1489 1488 1487 1486 1486 1485 1484 1483 1482 1481 1480 1479
1457 1459 1461 1463 1464 1466 1468 1470 1472 1474 1476 1477 1479 1480 1481 1483 1484 1486 1487 1488 1490 1491 1491 1493 1494 1495 1495 1496 1496 1496 1496 1496 1496 1496 1497 1497 1497 1496 1496 1496 1496 1496 1496 1496 1495 1495 1495 1494 1494 1493 1492 1492 1491 1491 1490 1490 1489 1488 1487 1486 1485 1484 1483 1482 1481 1481 1480 1479 1478
1456 1458 1460 1462 1464 1466 1467 1469 1472 1474 1476 1477 1479 1480 1481 1483 1484 1485 1487 1488 1489 1490 1491 1492 1493 1494 1494 1495 1495 1495 1495 1496 1496 1496 1496 1496 1496 1496 1496 1496 1496 1495 1495 1495 1494 1494 1494 1493 1493 1492 1491 1491 1490 1489 1489 1488 1488 1487 1486 1485 1484 1483 1482 1481 1480 1479 1478 1477 1476
1456 1457 1459 1461 1463 1465 1467 1470 1472 1474 1475 1477 1478 1480 1481 1482 1484 1485 1486 1487 1489 1490 1491 1491 1492 1493 1494 1494 1494 1494 1495 1495 1495 1495 1495 1495 1495 1495 1495 1495 1495 1494 1494 1494 1493 1493 1492 1492 1491 1491 1490 1490 1489 1488 1488 1487 1486 1486 1485 1484 1483 1482 1481 1479 1478 1477 1476 1476 1475
1455 1456 1458 1460 1462 1465 1467 1470 1472 1473 1475 1476 1478 1480 1481 1482 1483 1485 1486 1487 1488 1489 1490 1491 1492 1492 1493 1493 1493 1494 1494 1494 1494 1494 1494 1494 1494 1494 1494 1494 1493 1493 1493 1492 1492 1492 1491 1491 1490 1490 1489 1489 1488 1487 1486 1486 1485 1484 1484 1483 1481 1481 1479 1478 1477 1476 1475 1474 1473
1454 1456 1457 1460 1462 1465 1467 1469 1471 1473 1475 1476 1477 1479 1480 1482 1483 1484 1486 1486 1487 1488 1489 1490 1491 1491 1492 1492 1492 1493 1493 1493 1493 1493 1493 1493 1493 1493 1493 1493 1492 1492 1492 1491 1491 1491 1490 1490 1489 1489 1488 1487 1487 1486 1485 1485 1484 1483 1482 1481 1480 1479 1478 1477 1476 1475 1474 1472 1471
1454 1456 1457 1460 1462 1464 1466 1468 1470 1472 1474 1476 1477 1478 1480 1481 1482 1484 1485 1486 1487 1488 1489 1489 1490 1491 1491 1491 1492 1492 1492 1492 1493 1493 1493 1493 1492 1492 1492 1492 1491 1491 1491 1490 1490 1490 1489 1489 1488 1487 1487 1486 1486 1485 1484 1483 1483 1482 1481 1480 1479 1478 1476 1475 1474 1473 1472 1471 1470
1454 1455 1457 1460 1462 1464 1466 1468 1470 1471 1473 1475 1476 1478 1479 1481 1482 1483 1484 1485 1486 1487 1488 1488 1489 1490 1490 1491 1491 1491 1491 1492 1492 1492 1492 1492 1492 1491 1491 1491 1490 1490 1490 1489 1489 1489 1488 1488 1487 1486 1486 1485 1484 1484 1483 1482 1481 1481 1480 1478 1477 1476 1475 1474 1473 1472 1471 1470 1469
1453 1455 1457 1459 1461 1463 1466 1467 1469 1471 1473 1474 1476 1477 1479 1480 1481 1482 1484 1485 1485 1486 1487 1487 1488 1489 1489 1490 1490 1491 1491 1491 1491 1491 1491 1491 1491 1490 1490 1490 1489 1489 1489 1488 1488 1487 1487 1486 1486 1486 1485 1484 1483 1482 1482 1481 1480 1479 1478 1477 1476 1475 1474 1473 1471 1471 1469 1468 1467
1453 1455 1457 1459 1461 1463 1465 1467 1469 1471 1472 1474 1475 1477 1478 1480 1481 1482 1483 1484 1485 1485 1486 1487 1487 1488 1488 1489 1489 1490 1490 1490 1490 1490 1490 1490 1490 1489 1489 1488 1488 1488 1487 1487 1487 1486 1486 1486 1485 1484 1484 1483 1482 1481 1480 1480 1478 1477 1476 1476 1475 1473 1472 1471 1470 1469 1468 1467 1466
1453 1455 1457 1459 1461 1463 1465 1466 1468 1470 1472 1473 1475 1476 1478 1479 1480 1481 1482 1483 1484 1485 1485 1486 1486 1487 1488 1488 1489 1489 1489 1489 1489 1489 1489 1489 1488 1488 1488 1487 1487 1487 1486 1486 1486 1485 1485 1484 1484 1483 1483 1482 1481 1480 1479 1478 1477 1476 1475 1474 1473 1472 1471 1470 1469 1468 1466 1465 1464
1453 1455 1457 1459 1461 1463 1465 1466 1468 1470 1471 1473 1475 1476 1477 1478 1480 1481 1481 1482 1483 1484 1484 1485 1486 1486 1487 1487 1488 1488 1488 1488 1488 1488 1488 1488 1487 1487 1486 1486 1486 1486 1485 1485 1484 1484 1483 1483 1482 1482 1481 1481 1480 1479 1478 1477 1476 1475 1474 1472 1471 1471 1469 1468 1467 1466 1465 1464 1462
1453 1455 1457 1459 1461 1463 1465 1466 1468 1470 1471 1473 1474 1476 1477 1478 1479 1480 1481 1481 1482 1483 1484 1485 1485 1486 1486 1487 1487 1487 1487 1487 1487 1487 1487 1486 1486 1486 1486 1485 1485 1485 1484 1484 1483 1483 1482 1481 1481 1480 1480 1479 1478 1477 1476 1475 1474 1473 1472 1471 1470 1469 1468 1467 1466 1465 1463 1462 1461
1453 1455 1457 1459 1461 1463 1465 1466 1468 1470 1471 1473 1474 1475 1476 1477 1478 1479 1480 1481 1481 1482 1483 1484 1485 1485 1486 1486 1486 1486 1486 1486 1486 1486 1486 1486 1485 1485 1485 1484 1484 1483 1483 1483 1482 1481 1481 1480 1480 1479 1478 1477 1476 1476 1475 1474 1473 1472 1471 1470 1468 1467 1466 1465 1464 1463 1462 1461 1459
1453 1455 1457 1459 1461 1463 1465 1467 1468 1470 1471 1472 1474 1475 1476 1477 1478 1479 1479 1480 1481 1482 1482 1483 1484 1485 1485 1485 1485 1485 1485 1485 1485 1485 1485 1484 1484 1484 1483 1483 1483 1482 1482 1481 1481 1480 1480 1479 1478 1477 1476 1476 1475 1474 1473 1472 1471 1470 1469 1468 1467 1466 1465 1464 1463 1461 1460 1459 1457
1453 1455 1457 1459 1461 1463 1465 1466 1468 1470 1471 1472 1473 1474 1475 1476 1477 1478 1479 1480 1480 1481 1482 1483 1483 1484 1484 1484 1484 1484 1484 1484 1484 1484 1484 1483 1483 1483 1482 1482 1482 1481 1481 1480 1480 1479 1478 1477 1477 1476 1475 1474 1474 1473 1472 1471 1470 1469 1468 1466 1466 1464 1463 1462 1461 1460 1458 1457 1456
1453 1455 1457 1459 1461 1463 1465 1466 1468 1469 1471 1472 1473 1474 1475 1476 1476 1477 1478 1479 1480 1481 1481 1482 1482 1483 1483 1483 1483 1483 1483 1483 1483 1483 1482 1482 1482 1482 1481 1481 1481 1480 1480 1479 1478 1477 1477 1476 1475 1474 1474 1473 1472 1471 1470 1469 1468 1467 1466 1465 1464 1463 1462 1461 1459 1458 1457 1456 1454
1452 1455 1457 1459 1461 1463 1465 1466 1468 1469 1470 1471 1472 1473 1474 1475 1476 1477 1478 1478 1479 1480 1481 1481 1481 1482 1482 1482 1482 1482 1482 1482 1482 1481 1481 1481 1481 1481 1481 1480 1480 1479 1478 1478 1477 1476 1476 1475 1474 1473 1472 1471 1470 1469 1468 1467 1467 1466 1465 1464 1463 1461 1460 1459 1458 1456 1455 1454 1453
1453 1455 1457 1459 1461 1463 1465 1466 1467 1469 1470 1471 1472 1473 1474 1475 1475 1476 1477 1478 1479 1479 1480 1480 1481 1481 1481 1481 1481 1481 1481 1481 1481 1481 1480 1480 1480 1480 1479 1479 1478 1478 1477 1477 1476 1475 1475 1474 1473 1472 1471 1470 1469 1468 1467 1466 1465 1464 1463 1462 1461 1460 1459 1457 1456 1455 1454 1452 1451
1454 1456 1457 1459 1461 1463 1464 1466 1467 1468 1469 1470 1471 1472 1473 1474 1475 1476 1477 1477 1478 1479 1479 1479 1480 1480 1480 1480 1480 1480 1480 1480 1480 1480 1479 1479 1479 1479 1478 1478 1477 1477 1476 1476 1475 1474 1473 1472 1472 1471 1470 1469 1468 1467 1466 1465 1464 1462 1461 1461 1459 1458 1457 1456 1455 1453 1452 1451 1450
1454 1456 1458 1460 1461 1463 1464 1465 1466 1467 1469 1470 1471 1472 1473 1474 1475 1475 1476 1477 1477 1478 1478 1478 1479 1479 1479 1479 1479 1479 1479 1479 1478 1478 1478 1478 1478 1477 1477 1477 1476 1476 1475 1474 1474 1473 1472 1471 1470 1469 1468 1467 1466 1465 1464 1463 1462 1461 1460 1459 1457 1456 1455 1454 1453 1451 1451 1449 1448
1455 1456 1458 1460 1461 1462 1464 1465 1466 1467 1468 1469 1470 1471 1472 1473 1474 1475 1476 1476 1476 1477 1477 1478 1478 1478 1478 1478 1478 1478 1478 1477 1477 1477 1477 1477 1477 1476 1476 1476 1475 1475 1474 1473 1472 1471 1471 1470 1469 1468 1467 1466 1465 1464 1463 1462 1461 1459 1458 1457 1456 1454 1453 1452 1451 1450 1449 1447 1446
1455 1456 1458 1460 1461 1462 1463 1465 1466 1467 1468 1469 1470 1471 1472 1473 1474 1474 1475 1475 1476 1476 1476 1477 1477 1477 1477 1477 1477 1477 1476 1476 1476 1476 1476 1476 1476 1476 1475 1475 1474 1473 1473 1472 1471 1470 1469 1468 1467 1466 1465 1464 1463 1462 1461 1460 1459 1458 1456 1456 1454 1453 1452 1451 1449 1448 1447 1446 1444
1455 1456 1458 1459 1461 1462 1463 1464 1466 1466 1468 1469 1470 1471 1471 1472 1473 1474 1474 1475 1475 1475 1476 1476 1476 1476 1476 1476 1476 1476 1476 1476 1475 1475 1475 1475 1475 1474 1474 1473 1473 1472 1471 1471 1470 1469 1468 1467 1466 1465 1464 1463 1462 1461 1460 1459 1457 1456 1455 1454 1453 1452 1451 1449 1448 1447 1445 1444 1443
1455 1456 1458 1459 1460 1462 1463 1464 1465 1466 1467 1468 1469 1470 1471 1471 1472 1473 1473 1474 1474 1475 1475 1475 1475 1475 1475 1475 1475 1475 1475 1475 1475 1474 1474 1474 1474 1473 1473 1472 1472 1471 1470 1469 1468 1467 1466 1465 1464 1463 1462 1461 1460 1459 1458 1457 1456 1455 1454 1452 1451 1450 1449 1448 1446 1445 1444 1443 1441
1455 1456 1457 1459 1460 1461 1462 1464 1465 1466 1467 1468 1469 1470 1470 1471 1472 1472 1473 1473 1474 1474 1474 1474 1474 1474 1474 1474 1474 1474 1474 1474 1474 1473 1473 1473 1472 1472 1471 1471 1470 1470 1469 1468 1467 1466 1465 1464 1463 1462 1461 1460 1459 1458 1457 1456 1454 1453 1452 1451 1450 1448 1447 1446 1445 1444 1442 1441 1440
1454 1456 1457 1459 1460 1461 1462 1463 1465 1466 1467 1468 1468 1469 1470 1471 1471 1472 1472 1473 1473 1473 1473 1473 1473 1473 1473 1473 1473 1473 1473 1473 1473 1472 1472 1472 1471 1471 1470 1470 1469 1468 1467 1466 1466 1465 1463 1462 1461 1461 1459 1458 1457 1456 1455 1454 1453 1451 1450 1449 1448 1446 1445 1444 1443 1442 1441 1440 1439
1454 1456 1457 1458 1460 1461 1462 1463 1464 1466 1466 1467 1468 1469 1469 1470 1471 1471 1472 1472 1472 1472 1472 1472 1472 1472 1472 1472 1472 1472 1472 1472 1472 1471 1471 1471 1470 1470 1469 1468 1467 1467 1466 1465 1464 1463 1462 1461 1460 1459 1458 1456 1455 1454 1453 1452 1451 1450 1448 1447 1446 1445 1444 1443 1441 1441 1440 1439 1438
1454 1456 1457 1458 1460 1461 1462 1463 1464 1465 1466 1467 1468 1468 1469 1470 1470 1471 1471 1471 1471 1471 1471 1471 1471 1471 1471 1471 1471 1471 1471 1471 1471 1471 1470 1470 1469 1468 1468 1467 1466 1465 1464 1464 1463 1462 1461 1460 1458 1457 1456 1455 1454 1452 1451 1450 1449 1448 1447 1446 1445 1444 1442 1441 1440 1439 1438 1437 1436
1454 1456 1457 1458 1460 1461 1462 1463 1464 1465 1466 1467 1467 1468 1469 1469 1470 1470 1470 1470 1471 1471 1470 1470 1470 1471 1471 1471 1471 1471 1470 1470 1470 1469 1469 1468 1468 1467 1466 1466 1465 1464 1463 1462 1461 1460 1459 1458 1457 1456 1454 1453 1452 1451 1450 1449 1448 1446 1446 1444 1443 1442 1441 1440 1439 1438 1437 1436 1435
1454 1456 1457 1458 1460 1461 1462 1463 1464 1465 1466 1466 1467 1468 1468 1469 1469 1469 1469 1470 1470 1469 1469 1469 1470 1470 1470 1470 1470 1470 1469 1469 1469 1468 1468 1467 1466 1466 1465 1464 1463 1462 1461 1461 1460 1459 1458 1456 1455 1454 1453 1451 1450 1449 1448 1447 1446 1445 1444 1443 1442 1441 1440 1439 1438 1437 1436 1435 1434
1455 1456 1458 1459 1460 1461 1462 1463 1464 1465 1466 1466 1467 1467 1468 1468 1468 1468 1469 1469 1468 1468 1469 1469 1469 1469 1469 1469 1469 1469 1468 1468 1468 1467 1466 1466 1465 1465 1464 1463 1462 1461 1460 1459 1458 1457 1456 1455 1454 1452 1451 1450 1449 1448 1446 1446 1444 1443 1442 1441 1441 1440 1439 1438 1437 1436 1434 1433 1432
1456 1457 1458 1459 1460 1461 1462 1463 1464 1465 1465 1466 1466 1467 1467 1467 1468 1468 1468 1468 1468 1468 1468 1468 1469 1469 1468 1468 1468 1468 1467 1467 1466 1466 1465 1464 1464 1463 1462 1461 1461 1459 1458 1457 1456 1456 1455 1453 1452 1451 1449 1448 1447 1446 1445 1444 1443 1442 1441 1440 1439 1439 1438 1437 1436 1434 1432 1431 1430
1456 1457 1458 1459 1460 1461 1462 1463 1464 1464 1465 1465 1466 1466 1466 1467 1467 1467 1467 1467 1467 1468 1468 1468 1468 1468 1468 1467 1467 1467 1466 1466 1465 1465 1464 1463 1462 1461 1461 1460 1459 1458 1457 1456 1455 1454 1453 1452 1451 1449 1448 1446 1446 1444 1443 1442 1442 1441 1440 1439 1438 1437 1436 1435 1434 1432 1431 1430 1429
1456 1457 1458 1459 1460 1461 1462 1463 1463 1464 1465 1465 1465 1466 1466 1466 1466 1466 1466 1467 1467 1467 1467 1467 1467 1467 1467 1466 1466 1466 1465 1464 1464 1463 1462 1461 1461 1460 1459 1459 1458 1456 1456 1454 1453 1452 1451 1450 1449 1447 1446 1445 1444 1443 1442 1441 1440 1440 1439 1438 1437 1436 1435 1433 1432 1431 1430 1429 1428
1456 1457 1458 1459 1460 1461 1462 1462 1463 1464 1464 1464 1465 1465 1465 1465 1465 1466 1466 1466 1466 1467 1467 1467 1466 1466 1466 1466 1465 1465 1464 1463 1462 1461 1461 1460 1459 1458 1457 1457 1456 1455 1454 1453 1452 1451 1450 1448 1447 1446 1445 1443 1442 1441 1441 1440 1439 1438 1438 1437 1436 1435 1433 1431 1430 1429 1428 1427 1426